This demonstration page uses our WeatherBlox Daily Observations layout. Learn more.

Left ArrowRight Arrow

34.02893, -84.19858

Hourly Observations for February 11, 2017

Temp ( °F °C ) Dew Point ( °F °C ) Humidity (%) Winds ( mph kmh ) Pressure ( in mb ) Visibility ( mi km ) Precip ( " mm )
12:53 am 00:53 Clear 48 8.9 27 -2.8 44 44 S 6 9 30.22 1023 10 16 0.00 0.00
1:53 am 01:53 Clear 45 7.2 28 -2.2 52 52 SSW 6 9 30.22 1023 10 16 0.00 0.00
2:53 am 02:53 Clear 45 7.2 29 -1.7 54 54 SSW 5 7 30.21 1023 10 16 0.00 0.00
3:53 am 03:53 Clear 47 8.3 30 -1.1 52 52 SW 7 11 30.20 1023 10 16 0.00 0.00
4:53 am 04:53 Clear 47 8.3 30 -1.1 52 52 WSW 6 9 30.22 1023 10 16 0.00 0.00
5:53 am 05:53 Cloudy 49 9.4 33 0.6 55 55 SSW 6 9 30.21 1023 10 16 0.00 0.00
6:53 am 06:53 Cloudy 49 9.4 34 1.1 56 56 SSW 6 9 30.24 1024 10 16 0.00 0.00
7:32 am 07:32 Cloudy 48 9 37 3 66 66 SSW 6 9 30.27 1025 10 16 0.00 0.00
7:53 am 07:53 Cloudy 50 10 39 3.9 66 66 SW 6 9 30.24 1024 10 16 0.00 0.00
8:53 am 08:53 Cloudy 53 11.7 44 6.7 72 72 WSW 5 7 30.24 1024 10 16 0.00 0.00
9:53 am 09:53 Cloudy 56 13.3 48 8.9 75 75 SW 9 15 30.24 1024 10 16 0.00 0.00
10:53 am 10:53 Cloudy 58 14.4 50 10 75 75 SW 9 15 30.23 1024 10 16 0.00 0.00
11:53 am 11:53 Cloudy 62 16.7 53 11.7 73 73 WSW 13 20 30.22 1023 10 16 0.00 0.00
12:31 pm 12:31 Cloudy 63 17.2 53 11.7 70 70 SW 12 19 30.21 1023 10 16 0.00 0.00
12:53 pm 12:53 Cloudy 66 18.9 54 12.2 65 65 SW 14 22 30.19 1022 10 16 0.00 0.00
1:05 pm 13:05 Cloudy 65 18.3 54 12.2 68 68 SSW 14 22 30.15 1021 10 16 0.00 0.00
1:53 pm 13:53 Cloudy 67 19.4 54 12.2 63 63 SW 14 22 30.16 1021 10 16 0.00 0.00
2:17 pm 14:17 Cloudy 67 19.4 55 12.8 66 66 WSW 13 20 30.12 1020 10 16 0.00 0.00
2:53 pm 14:53 Cloudy 67 19.4 55 12.8 66 66 SW 10 17 30.14 1021 10 16 0.00 0.00
3:09 pm 15:09 Cloudy 67 19.4 55 12.8 66 66 WSW 12 19 30.12 1020 10 16 0.00 0.00
3:53 pm 15:53 Cloudy 67 19.4 56 13.3 68 68 SW 12 19 30.13 1020 10 16 0.00 0.00
4:53 pm 16:53 Cloudy 67 19.4 55 12.8 66 66 SW 8 13 30.12 1020 10 16 0.00 0.00
5:53 pm 17:53 Cloudy 67 19.4 55 12.8 66 66 SSW 6 9 30.12 1020 10 16 0.00 0.00
6:00 pm 18:00 Cloudy 66 19 55 13 68 68 SSW 6 9 30.09 1019 10 16 0.00 0.00
6:53 pm 18:53 Cloudy 66 18.9 56 13.3 70 70 SSW 9 15 30.11 1020 10 16 0.00 0.00
7:53 pm 19:53 Cloudy 64 17.8 56 13.3 75 75 SW 5 7 30.12 1020 10 16 0.00 0.00
8:53 pm 20:53 Cloudy 65 18.3 56 13.3 73 73 SSW 6 9 30.11 1020 10 16 0.00 0.00
9:53 pm 21:53 Cloudy 66 18.9 56 13.3 70 70 SSW 8 13 30.10 1019 10 16 0.00 0.00
10:53 pm 22:53 Cloudy 66 18.9 56 13.3 70 70 SSW 9 15 30.08 1019 10 16 0.00 0.00
11:53 pm 23:53 Cloudy 66 18.9 56 13.3 70 70 SW 10 17 30.07 1018 10 16 0.00 0.00

Powered by AerisWeather